GLOBALSTAR M001 1 25162U 98008A 09006.62453348 -.00000084 00000-0 10000-3 0 1686 2 25162 051.9996 168.7565 0001940 130.2859 229.8158 12.37977756499930 GLOBALSTAR M004 1 25163U 98008B 09006.53796505 -.00000086 00000-0 10000-3 0 2045 2 25163 052.0020 011.5588 0002608 298.2935 061.7649 12.63148788502750 GLOBALSTAR M002 1 25164U 98008C 09006.73996279 -.00000071 00000-0 10000-3 0 961 2 25164 051.9981 176.5065 0001348 079.8417 280.2545 11.61422266486325 GLOBALSTAR M003 1 25165U 98008D 09007.07334308 -.00000086 00000-0 10000-3 0 2136 2 25165 051.9970 014.5800 0000433 128.7967 231.2906 12.62262078502703 GLOBALSTAR M014 1 25306U 98023A 09006.70972686 -.00000084 00000-0 10000-3 0 840 2 25306 051.9935 051.5883 0010539 155.9502 204.1840 12.38375940487443 GLOBALSTAR M006 1 25307U 98023B 09007.08581821 -.00000086 00000-0 10000-3 0 9155 2 25307 051.9992 060.6552 0001873 163.7800 196.3087 12.62265291493873 GLOBALSTAR M015 1 25308U 98023C 09006.67014788 -.00000086 00000-0 10000-3 0 9287 2 25308 051.9988 061.3754 0002818 179.3935 180.6830 12.62263358493822 GLOBALSTAR M008 1 25309U 98023D 09006.65063503 -.00000086 00000-0 10000-3 0 9005 2 25309 051.9951 061.2627 0000833 098.4578 261.6417 12.62263099493834 GLOBALSTAR M023 1 25621U 99004A 09007.05459811 -.00000086 00000-0 10000-3 0 8928 2 25621 052.0142 333.7508 0009613 175.5496 184.5449 12.62213938457409 GLOBALSTAR M040 1 25622U 99004B 09006.60591545 -.00000086 00000-0 10000-3 0 8728 2 25622 051.9951 331.0537 0000851 289.3995 070.6771 12.62262985457366 GLOBALSTAR M036 1 25623U 99004C 09006.24980712 -.00000086 00000-0 10000-3 0 8389 2 25623 052.0039 333.9286 0000058 235.6527 124.4324 12.62262914457333 GLOBALSTAR M038 1 25624U 99004D 09006.21738498 -.00000086 00000-0 10000-3 0 8390 2 25624 052.0044 289.8313 0001060 352.4433 007.6416 12.62265098458070 GLOBALSTAR M022 1 25649U 99012A 09006.18300805 -.00000084 00000-0 10000-3 0 8195 2 25649 052.0053 157.6006 0001481 105.0404 255.0622 12.38623377452045 GLOBALSTAR M041 1 25650U 99012B 09006.71339246 -.00000086 00000-0 10000-3 0 8458 2 25650 052.0072 108.8627 0002851 141.4075 218.6982 12.62266167452956 GLOBALSTAR M046 1 25651U 99012C 09006.68262665 -.00000086 00000-0 10000-3 0 8534 2 25651 052.0026 107.1750 0002365 123.0607 237.0485 12.62267141452936 GLOBALSTAR M037 1 25652U 99012D 09007.03907750 -.00000086 00000-0 10000-3 0 8288 2 25652 052.0019 107.3705 0002637 099.4045 260.7118 12.62266692452942 GLOBALSTAR M045 1 25676U 99019A 09006.66285473 -.00000086 00000-0 10000-3 0 9540 2 25676 051.9950 106.5191 0003160 153.7572 206.3448 12.62258249450490 GLOBALSTAR M019 1 25677U 99019B 09005.96260634 -.00000086 00000-0 10000-3 0 8498 2 25677 051.9926 153.4476 0002850 114.5377 245.5782 12.62260405450352 GLOBALSTAR M044 1 25678U 99019C 09006.70261870 -.00000086 00000-0 10000-3 0 8518 2 25678 052.0009 108.2439 0002419 124.2844 235.8248 12.62260798449848 GLOBALSTAR M042 1 25679U 99019D 09006.62608033 -.00000086 00000-0 10000-3 0 9337 2 25679 052.0011 198.0763 0002426 072.9915 287.1217 12.62261989449002 GLOBALSTAR M025 1 25770U 99031A 09006.81387083 -.00000086 00000-0 10000-3 0 7904 2 25770 051.9941 151.4126 0002460 112.9137 247.1981 12.62261787441786 GLOBALSTAR M049 1 25771U 99031B 09006.87330010 -.00000086 00000-0 10000-3 0 9967 2 25771 051.9932 150.8464 0002391 100.4142 259.6992 12.62261216441794 GLOBALSTAR M047 1 25772U 99031C 09006.69494141 -.00000086 00000-0 10000-3 0 8671 2 25772 051.9925 151.3622 0002772 098.9992 261.1181 12.62264889441771 GLOBALSTAR M052 1 25773U 99031D 09005.56976418 -.00000086 +00000-0 +10000-3 0 08275 2 25773 051.9884 153.7039 0002827 088.2982 271.8188 12.62259324441634 GLOBALSTAR M035 1 25851U 99037A 09005.79296777 -.00000061 +00000-0 +10000-3 0 07672 2 25851 051.9931 128.9535 0012202 333.7097 026.3077 11.04474830432593 GLOBALSTAR M032 1 25852U 99037B 09006.64594725 -.00000086 00000-0 10000-3 0 7691 2 25852 051.9994 197.1604 0001950 071.0304 289.0764 12.62262180438000 GLOBALSTAR M051 1 25853U 99037C 09006.98467403 -.00000086 00000-0 10000-3 0 7781 2 25853 051.9988 196.0674 0001337 116.1806 243.9193 12.62261844438041 GLOBALSTAR M030 1 25854U 99037D 09006.05426115 -.00000086 00000-0 10000-3 0 7831 2 25854 051.9996 199.1831 0002243 091.9431 268.1692 12.62260247437926 GLOBALSTAR M048 1 25872U 99041A 09006.12606250 -.00000086 00000-0 10000-3 0 8161 2 25872 052.0076 244.9798 0001938 044.3477 315.7547 12.62260753436053 GLOBALSTAR M026 1 25873U 99041B 09006.72237956 -.00000086 00000-0 10000-3 0 8015 2 25873 052.0058 243.4612 0002096 065.2914 294.8161 12.62260219436121 GLOBALSTAR M043 1 25874U 99041C 09006.73962868 -.00000086 00000-0 10000-3 0 8070 2 25874 052.0059 243.2351 0001460 076.7181 283.3843 12.62258810436122 GLOBALSTAR M028 1 25875U 99041D 09006.71988073 -.00000086 00000-0 10000-3 0 7838 2 25875 052.0050 243.0038 0001361 066.4054 293.6949 12.62263094436120 GLOBALSTAR M024 1 25883U 99043A 09006.49457627 -.00000086 00000-0 10000-3 0 7919 2 25883 052.0102 289.7279 0000899 011.5484 348.5399 12.62256556433215 GLOBALSTAR M027 1 25884U 99043B 09006.31654014 -.00000086 00000-0 10000-3 0 7820 2 25884 052.0108 290.1660 0000964 084.8995 275.1980 12.62261691433199 GLOBALSTAR M054 1 25885U 99043C 09005.76197983 -.00000084 00000-0 10000-3 0 7598 2 25885 052.0097 109.6560 0002426 170.6661 189.4233 12.38268627429922 GLOBALSTAR M053 1 25886U 99043D 09006.92226036 -.00000086 00000-0 10000-3 0 7895 2 25886 052.0118 288.3802 0001310 080.9926 279.1089 12.62267316433279 GLOBALSTAR M058 1 25907U 99049A 09006.18776191 -.00000086 00000-0 10000-3 0 7895 2 25907 051.9993 288.2623 0000802 040.5304 319.5625 12.60420116429434 GLOBALSTAR M050 1 25908U 99049B 09006.19077101 -.00000079 00000-0 10000-3 0 7782 2 25908 052.0009 040.5767 0007706 295.4773 064.5257 12.07303887427447 GLOBALSTAR M033 1 25909U 99049C 09006.19268114 -.00000086 00000-0 10000-3 0 7822 2 25909 052.0002 288.5521 0000679 052.8964 307.1977 12.64122975429416 GLOBALSTAR M055 1 25910U 99049D 09007.10109121 -.00000086 00000-0 10000-3 0 8021 2 25910 052.0034 330.7739 0000157 256.9631 103.1205 12.62266639428784 GLOBALSTAR M057 1 25943U 99058A 09005.57613839 -.00000086 +00000-0 +10000-3 0 03577 2 25943 052.0023 065.6957 0001775 110.8306 249.2792 12.62268365425292 GLOBALSTAR M059 1 25944U 99058B 09006.63086641 -.00000086 00000-0 10000-3 0 7676 2 25944 052.0057 062.7139 0002479 162.1816 197.9136 12.62262422425455 GLOBALSTAR M056 1 25945U 99058C 09007.12298529 -.00000086 00000-0 10000-3 0 1058 2 25945 051.9999 014.9799 0001242 177.2940 182.7929 12.62264693426255 GLOBALSTAR M031 1 25946U 99058D 09007.13297320 -.00000086 00000-0 10000-3 0 7863 2 25946 051.9994 015.5431 0003041 221.2461 138.8166 12.62262818426272 GLOBALSTAR M039 1 25961U 99062A 09006.03226113 -.00000086 00000-0 10000-3 0 699 2 25961 051.9925 198.0127 0002020 076.1126 283.9967 12.62258979421755 GLOBALSTAR M034 1 25962U 99062B 09005.59145654 -.00000086 +00000-0 +10000-3 0 09655 2 25962 051.9989 245.5352 0001699 027.9287 332.1608 12.62258794420918 GLOBALSTAR M029 1 25963U 99062C 09007.06137895 -.00000086 00000-0 10000-3 0 828 2 25963 051.9964 329.9973 0000543 260.9066 099.1732 12.62262159431593 GLOBALSTAR M061 1 25964U 99062D 09006.72264651 -.00000074 00000-0 10000-3 0 7400 2 25964 051.9795 244.9635 0005379 184.4651 175.6140 11.76680993414485 GLOBALSTAR M063 1 26081U 00008A 09006.13345962 -.00000086 00000-0 10000-3 0 8395 2 26081 052.0005 018.5605 0000866 192.7601 167.3235 12.62261821419510 GLOBALSTAR M062 1 26082U 00008B 09006.57386002 -.00000086 00000-0 10000-3 0 7461 2 26082 052.0032 153.6503 0003077 116.4282 243.6905 12.62258665411273 GLOBALSTAR M060 1 26083U 00008C 09005.67325190 -.00000086 00000-0 10000-3 0 8318 2 26083 052.0054 066.7126 0001634 161.7121 198.3807 12.62260577418667 GLOBALSTAR M064 1 26084U 00008D 09006.48096363 -.00000086 00000-0 10000-3 0 509 2 26084 052.0082 018.8012 0001174 181.3868 178.6991 12.62257935437510 GLOBALSTAR M065 1 31571U 07020A 09006.21736794 -.00000137 00000-0 -18351-3 0 5091 2 31571 051.9881 153.3363 0003231 101.8079 258.3141 12.62264172 75267 GLOBALSTAR M069 1 31573U 07020C 09005.56926011 -.00000086 00000-0 10000-3 0 2657 2 31573 051.9944 110.5990 0001452 133.4886 226.6105 12.62259282 75916 GLOBALSTAR M072 1 31574U 07020D 09007.18268320 -.00000119 00000-0 -82855-4 0 4984 2 31574 052.0065 196.2910 0002327 087.0409 273.0667 12.62265982 74623 GLOBALSTAR M071 1 31576U 07020F 09005.52975487 -.00000086 00000-0 10000-3 0 2815 2 31576 052.0054 110.9748 0001221 088.0750 272.0271 12.62259192 75905